DAL3056 KATL-KDAB

Flight info

Callsign DAL3056
Flight time 0h 57m
Altitude 32000
Route VRSTY3 NOKIE YANTI KYLEG TTHOR3
Aircraft B739/M-SDE2E3FGHIRWXY/LB1

Departure

Time 2026-05-04 22:08
Airport Hartsfield Jackson Atlanta International Airport (KATL)

Arrival

Time 2026-05-04 23:05
Airport Daytona Beach International Airport (KDAB)
Time Latitude Longitude Altitude Speed Heading
2026-05-04 21:33 33.64342 -84.43642 1005 ft 0 kts 89°
2026-05-04 21:55 33.64342 -84.43658 1005 ft 4 kts 90°
2026-05-04 21:56 33.64344 -84.43689 1005 ft 4 kts 109°
2026-05-04 21:56 33.64357 -84.43714 1005 ft 4 kts 147°
2026-05-04 21:56 33.64374 -84.43722 1005 ft 0 kts 180°
2026-05-04 22:00 33.64369 -84.43722 1005 ft 2 kts 187°
2026-05-04 22:00 33.64344 -84.43741 1000 ft 7 kts 217°
2026-05-04 22:00 33.64294 -84.43782 1005 ft 11 kts 201°
2026-05-04 22:00 33.64220 -84.43787 1005 ft 11 kts 180°
2026-05-04 22:01 33.64149 -84.43787 1005 ft 10 kts 180°
2026-05-04 22:01 33.64078 -84.43787 1005 ft 10 kts 180°
2026-05-04 22:01 33.64010 -84.43787 1005 ft 10 kts 180°
2026-05-04 22:01 33.63943 -84.43787 1005 ft 10 kts 180°
2026-05-04 22:02 33.63869 -84.43787 1005 ft 11 kts 180°
2026-05-04 22:02 33.63787 -84.43787 1005 ft 12 kts 180°
2026-05-04 22:02 33.63693 -84.43778 1005 ft 15 kts 161°
2026-05-04 22:02 33.63597 -84.43733 1005 ft 16 kts 133°
2026-05-04 22:03 33.63582 -84.43585 1005 ft 21 kts 89°
2026-05-04 22:03 33.63581 -84.43397 1004 ft 24 kts 90°
2026-05-04 22:03 33.63581 -84.43186 1005 ft 27 kts 90°
2026-05-04 22:03 33.63582 -84.42955 1005 ft 29 kts 90°
2026-05-04 22:04 33.63582 -84.42709 1006 ft 30 kts 90°
2026-05-04 22:04 33.63582 -84.42452 1006 ft 31 kts 90°
2026-05-04 22:04 33.63581 -84.42204 1006 ft 29 kts 90°
2026-05-04 22:04 33.63582 -84.41972 1005 ft 27 kts 90°
2026-05-04 22:05 33.63581 -84.41754 1005 ft 25 kts 90°
2026-05-04 22:05 33.63581 -84.41549 1005 ft 24 kts 90°
2026-05-04 22:05 33.63581 -84.41358 1004 ft 22 kts 90°
2026-05-04 22:05 33.63581 -84.41184 1005 ft 20 kts 90°
2026-05-04 22:06 33.63581 -84.41026 1005 ft 18 kts 90°
2026-05-04 22:06 33.63568 -84.40923 1005 ft 10 kts 129°
2026-05-04 22:06 33.63502 -84.40912 1006 ft 10 kts 195°
2026-05-04 22:06 33.63471 -84.40964 1006 ft 4 kts 267°
2026-05-04 22:07 33.63471 -84.40966 1006 ft 0 kts 270°
2026-05-04 22:07 33.63471 -84.40978 1006 ft 10 kts 270°
2026-05-04 22:07 33.63471 -84.41363 1005 ft 82 kts 270°
2026-05-04 22:08 33.63471 -84.42313 1006 ft 143 kts 270°
2026-05-04 22:08 33.63472 -84.43647 1306 ft 166 kts 270°
2026-05-04 22:08 33.63471 -84.45081 1956 ft 176 kts 267°
2026-05-04 22:08 33.63461 -84.46569 2692 ft 178 kts 267°
2026-05-04 22:09 33.63455 -84.48121 3110 ft 199 kts 267°
2026-05-04 22:09 33.63452 -84.49877 3364 ft 223 kts 268°
2026-05-04 22:09 33.63444 -84.51819 3669 ft 240 kts 267°
2026-05-04 22:09 33.63438 -84.53861 4115 ft 251 kts 268°
2026-05-04 22:10 33.63449 -84.56023 4565 ft 265 kts 268°
2026-05-04 22:10 33.63453 -84.58244 5406 ft 267 kts 268°
2026-05-04 22:10 33.63455 -84.60468 6284 ft 268 kts 268°
2026-05-04 22:10 33.63453 -84.62725 7063 ft 272 kts 267°
2026-05-04 22:11 33.63091 -84.64932 7827 ft 272 kts 243°
2026-05-04 22:11 33.61960 -84.66729 8595 ft 273 kts 219°
2026-05-04 22:11 33.60368 -84.67986 9385 ft 276 kts 210°
2026-05-04 22:11 33.58679 -84.69097 10142 ft 279 kts 203°
2026-05-04 22:12 33.56764 -84.69559 10821 ft 286 kts 181°
2026-05-04 22:12 33.54771 -84.69287 11503 ft 291 kts 173°
2026-05-04 22:12 33.52753 -84.68876 12170 ft 296 kts 172°
2026-05-04 22:12 33.50701 -84.68456 12873 ft 301 kts 172°
2026-05-04 22:13 33.48623 -84.68048 13553 ft 305 kts 173°
2026-05-04 22:13 33.46516 -84.67646 14197 ft 309 kts 173°
2026-05-04 22:13 33.44383 -84.67239 14834 ft 311 kts 171°
2026-05-04 22:13 33.42360 -84.66293 15458 ft 319 kts 148°
2026-05-04 22:14 33.40749 -84.64374 15714 ft 341 kts 126°
2026-05-04 22:14 33.39477 -84.61879 15888 ft 361 kts 122°
2026-05-04 22:14 33.38206 -84.59200 16016 ft 380 kts 121°
2026-05-04 22:14 33.36894 -84.56384 16258 ft 394 kts 121°
2026-05-04 22:15 33.35546 -84.53500 16756 ft 399 kts 121°
2026-05-04 22:15 33.34181 -84.50604 17333 ft 401 kts 122°
2026-05-04 22:15 33.32795 -84.47692 17898 ft 404 kts 122°
2026-05-04 22:15 33.31390 -84.44761 18452 ft 408 kts 122°
2026-05-04 22:16 33.29965 -84.41805 18950 ft 412 kts 122°
2026-05-04 22:16 33.28525 -84.38825 19418 ft 416 kts 122°
2026-05-04 22:16 33.27069 -84.35816 19870 ft 420 kts 122°
2026-05-04 22:16 33.25600 -84.32784 20339 ft 424 kts 122°
2026-05-04 22:17 33.24116 -84.29722 20815 ft 427 kts 122°
2026-05-04 22:17 33.22622 -84.26642 21266 ft 431 kts 122°
2026-05-04 22:17 33.21110 -84.23529 21708 ft 435 kts 122°
2026-05-04 22:17 33.19587 -84.20392 22152 ft 438 kts 122°
2026-05-04 22:18 33.18050 -84.17232 22585 ft 442 kts 122°
2026-05-04 22:18 33.16499 -84.14044 23023 ft 446 kts 122°
2026-05-04 22:18 33.14935 -84.10832 23445 ft 449 kts 122°
2026-05-04 22:18 33.13358 -84.07597 23831 ft 453 kts 122°
2026-05-04 22:19 33.11768 -84.04336 24198 ft 456 kts 122°
2026-05-04 22:19 33.10169 -84.01063 24594 ft 458 kts 122°
2026-05-04 22:19 33.08452 -83.97869 24937 ft 458 kts 133°
2026-05-04 22:19 33.06116 -83.95328 25278 ft 453 kts 148°
2026-05-04 22:20 33.03569 -83.93203 25676 ft 454 kts 149°
2026-05-04 22:20 33.00913 -83.91053 26032 ft 457 kts 150°
2026-05-04 22:20 32.98310 -83.88948 26367 ft 460 kts 149°
2026-05-04 22:20 32.95662 -83.86787 26712 ft 463 kts 149°
2026-05-04 22:21 32.93010 -83.84599 27066 ft 465 kts 149°
2026-05-04 22:21 32.90350 -83.82389 27417 ft 468 kts 149°
2026-05-04 22:21 32.87679 -83.80162 27746 ft 470 kts 149°
2026-05-04 22:21 32.84993 -83.77921 28068 ft 473 kts 149°
2026-05-04 22:22 32.82294 -83.75670 28393 ft 475 kts 149°
2026-05-04 22:22 32.79583 -83.73412 28715 ft 477 kts 149°
2026-05-04 22:22 32.76855 -83.71142 29031 ft 480 kts 149°
2026-05-04 22:22 32.74109 -83.68860 29335 ft 482 kts 149°
2026-05-04 22:23 32.71357 -83.66576 29636 ft 484 kts 150°
2026-05-04 22:23 32.68592 -83.64279 29953 ft 486 kts 149°
2026-05-04 22:23 32.65850 -83.61924 30350 ft 486 kts 148°
2026-05-04 22:23 32.63148 -83.59535 30768 ft 483 kts 148°
2026-05-04 22:24 32.60465 -83.57137 31161 ft 482 kts 148°
2026-05-04 22:24 32.57795 -83.54749 31504 ft 481 kts 148°
2026-05-04 22:24 32.55991 -83.53140 31781 ft 479 kts 148°
2026-05-04 22:24 32.53331 -83.50777 32044 ft 479 kts 149°
2026-05-04 22:25 32.50660 -83.48415 32028 ft 479 kts 149°
2026-05-04 22:25 32.45346 -83.43732 32032 ft 473 kts 149°
2026-05-04 22:26 32.40109 -83.39130 32042 ft 471 kts 149°
2026-05-04 22:26 32.34851 -83.34517 32044 ft 470 kts 149°
2026-05-04 22:27 32.29590 -83.29909 32053 ft 471 kts 149°
2026-05-04 22:27 32.24323 -83.25300 32050 ft 472 kts 150°
2026-05-04 22:28 32.19043 -83.20685 32052 ft 473 kts 150°
2026-05-04 22:28 32.13744 -83.16061 32044 ft 474 kts 150°
2026-05-04 22:29 32.08430 -83.11430 32049 ft 475 kts 150°
2026-05-04 22:29 32.03101 -83.06792 32044 ft 476 kts 150°
2026-05-04 22:30 31.97763 -83.02154 32049 ft 477 kts 150°
2026-05-04 22:30 31.92416 -82.97514 32044 ft 477 kts 150°
2026-05-04 22:31 31.87068 -82.92880 32047 ft 477 kts 150°
2026-05-04 22:31 31.81719 -82.88251 32046 ft 477 kts 151°
2026-05-04 22:32 31.76655 -82.83149 32060 ft 486 kts 140°
2026-05-04 22:32 31.72094 -82.77270 32042 ft 487 kts 138°
2026-05-04 22:33 31.67555 -82.71352 32046 ft 487 kts 139°
2026-05-04 22:33 31.62993 -82.65490 32043 ft 486 kts 139°
2026-05-04 22:34 31.58435 -82.59693 32043 ft 486 kts 140°
2026-05-04 22:34 31.53845 -82.53875 32058 ft 486 kts 140°
2026-05-04 22:35 31.50144 -82.49189 32032 ft 486 kts 140°
2026-05-04 22:35 31.45516 -82.43334 32047 ft 486 kts 140°
2026-05-04 22:36 31.40946 -82.37559 32053 ft 487 kts 140°
2026-05-04 22:36 31.36343 -82.31752 32045 ft 487 kts 140°
2026-05-04 22:37 31.31729 -82.25941 32045 ft 487 kts 140°
2026-05-04 22:37 31.27117 -82.20140 32046 ft 487 kts 140°
2026-05-04 22:38 31.22499 -82.14341 32048 ft 487 kts 140°
2026-05-04 22:38 31.17877 -82.08546 32058 ft 487 kts 140°
2026-05-04 22:39 31.13254 -82.02759 32059 ft 487 kts 140°
2026-05-04 22:39 31.08634 -81.96984 32063 ft 487 kts 141°
2026-05-04 22:40 31.04012 -81.91215 32065 ft 486 kts 141°
2026-05-04 22:40 30.99394 -81.85460 32075 ft 486 kts 141°
2026-05-04 22:41 30.94769 -81.79706 32077 ft 486 kts 141°
2026-05-04 22:41 30.90146 -81.73961 32075 ft 486 kts 141°
2026-05-04 22:42 30.85506 -81.68205 31855 ft 491 kts 141°
2026-05-04 22:42 30.83147 -81.65309 31326 ft 492 kts 143°
2026-05-04 22:42 30.80517 -81.62913 30822 ft 472 kts 158°
2026-05-04 22:42 30.77743 -81.61020 30387 ft 467 kts 159°
2026-05-04 22:43 30.74921 -81.59137 29874 ft 469 kts 159°
2026-05-04 22:43 30.72088 -81.57243 29312 ft 471 kts 158°
2026-05-04 22:43 30.69257 -81.55327 28800 ft 472 kts 158°
2026-05-04 22:43 30.66421 -81.53387 28275 ft 473 kts 157°
2026-05-04 22:44 30.63589 -81.51435 27758 ft 473 kts 157°
2026-05-04 22:44 30.60760 -81.49477 27248 ft 473 kts 156°
2026-05-04 22:44 30.57933 -81.47518 26741 ft 473 kts 156°
2026-05-04 22:44 30.55101 -81.45558 26259 ft 473 kts 156°
2026-05-04 22:45 30.52273 -81.43603 25772 ft 473 kts 156°
2026-05-04 22:45 30.46617 -81.39700 24821 ft 472 kts 156°
2026-05-04 22:45 30.43797 -81.37757 24349 ft 471 kts 155°
2026-05-04 22:46 30.40986 -81.35820 23893 ft 468 kts 155°
2026-05-04 22:46 30.38212 -81.33909 23392 ft 459 kts 155°
2026-05-04 22:46 30.35502 -81.32042 22856 ft 450 kts 155°
2026-05-04 22:46 30.32831 -81.30206 22327 ft 441 kts 155°
2026-05-04 22:47 30.30214 -81.28409 21814 ft 434 kts 155°
2026-05-04 22:47 30.27581 -81.26814 21285 ft 419 kts 167°
2026-05-04 22:47 30.24820 -81.26148 20832 ft 397 kts 182°
2026-05-04 22:47 30.22099 -81.25981 20407 ft 388 kts 184°
2026-05-04 22:48 30.19426 -81.25854 20091 ft 379 kts 184°
2026-05-04 22:48 30.16827 -81.25728 19845 ft 370 kts 184°
2026-05-04 22:48 30.14272 -81.25596 19527 ft 369 kts 184°
2026-05-04 22:48 30.11685 -81.25457 19111 ft 374 kts 183°
2026-05-04 22:49 30.09074 -81.25307 18703 ft 376 kts 183°
2026-05-04 22:49 30.06497 -81.25152 18288 ft 375 kts 182°
2026-05-04 22:49 30.03863 -81.24989 17809 ft 374 kts 182°
2026-05-04 22:49 30.01274 -81.24828 17339 ft 370 kts 182°
2026-05-04 22:50 29.98721 -81.24670 16874 ft 365 kts 182°
2026-05-04 22:50 29.96203 -81.24515 16414 ft 360 kts 182°
2026-05-04 22:50 29.93715 -81.24362 15967 ft 354 kts 182°
2026-05-04 22:50 29.91290 -81.24218 15518 ft 343 kts 184°
2026-05-04 22:51 29.88974 -81.24121 15120 ft 332 kts 184°
2026-05-04 22:51 29.86668 -81.24040 14720 ft 323 kts 185°
2026-05-04 22:51 29.84469 -81.23969 14362 ft 320 kts 185°
2026-05-04 22:51 29.82250 -81.23896 13987 ft 318 kts 185°
2026-05-04 22:52 29.80049 -81.23821 13588 ft 316 kts 184°
2026-05-04 22:52 29.77859 -81.23745 13177 ft 314 kts 184°
2026-05-04 22:52 29.75679 -81.23668 12771 ft 313 kts 184°
2026-05-04 22:52 29.73511 -81.23589 12367 ft 311 kts 184°
2026-05-04 22:53 29.71353 -81.23511 12057 ft 308 kts 184°
2026-05-04 22:53 29.69192 -81.23433 12021 ft 312 kts 184°
2026-05-04 22:53 29.67027 -81.23341 12003 ft 311 kts 180°
2026-05-04 22:53 29.64910 -81.22723 12014 ft 318 kts 163°
2026-05-04 22:54 29.62852 -81.21742 12003 ft 321 kts 162°
2026-05-04 22:54 29.60797 -81.20735 11995 ft 321 kts 162°
2026-05-04 22:54 29.58980 -81.19856 11996 ft 321 kts 163°
2026-05-04 22:54 29.56867 -81.19162 11873 ft 313 kts 181°
2026-05-04 22:55 29.54710 -81.19234 11516 ft 309 kts 191°
2026-05-04 22:55 29.52580 -81.19511 11137 ft 306 kts 192°
2026-05-04 22:55 29.50475 -81.19825 10782 ft 304 kts 192°
2026-05-04 22:55 29.48388 -81.20148 10424 ft 302 kts 192°
2026-05-04 22:56 29.46317 -81.20477 10066 ft 297 kts 192°
2026-05-04 22:56 29.44291 -81.20805 9680 ft 290 kts 192°
2026-05-04 22:56 29.42317 -81.21134 9280 ft 284 kts 192°
2026-05-04 22:56 29.40381 -81.21463 8896 ft 278 kts 193°
2026-05-04 22:57 29.38484 -81.21795 8521 ft 273 kts 192°
2026-05-04 22:57 29.36615 -81.22131 8152 ft 271 kts 192°
2026-05-04 22:57 29.34762 -81.22478 7761 ft 268 kts 192°
2026-05-04 22:57 29.32931 -81.22832 7394 ft 266 kts 193°
2026-05-04 22:58 29.31104 -81.23192 7048 ft 267 kts 193°
2026-05-04 22:58 29.29271 -81.23562 6679 ft 268 kts 193°
2026-05-04 22:58 29.27434 -81.23942 6330 ft 269 kts 193°
2026-05-04 22:58 29.25592 -81.24332 5964 ft 269 kts 192°
2026-05-04 22:59 29.23771 -81.24735 5585 ft 264 kts 192°
2026-05-04 22:59 29.21988 -81.25152 5236 ft 258 kts 192°
2026-05-04 22:59 29.20251 -81.25581 4872 ft 253 kts 192°
2026-05-04 22:59 29.18552 -81.26026 4525 ft 248 kts 192°
2026-05-04 23:00 29.16888 -81.26487 4163 ft 245 kts 192°
2026-05-04 23:00 29.15243 -81.26968 3818 ft 242 kts 193°
2026-05-04 23:00 29.13643 -81.27282 3502 ft 233 kts 172°
2026-05-04 23:00 29.12172 -81.26700 3239 ft 221 kts 139°
2026-05-04 23:01 29.11260 -81.25345 2826 ft 216 kts 105°
2026-05-04 23:01 29.11116 -81.23692 2581 ft 205 kts 81°
2026-05-04 23:01 29.11501 -81.22175 2370 ft 191 kts 66°
2026-05-04 23:01 29.12012 -81.20840 2213 ft 176 kts 66°
2026-05-04 23:02 29.12486 -81.19635 2055 ft 157 kts 64°
2026-05-04 23:02 29.12936 -81.18518 2020 ft 156 kts 65°
2026-05-04 23:02 29.13390 -81.17384 1847 ft 156 kts 64°
2026-05-04 23:02 29.13842 -81.16261 1659 ft 153 kts 64°
2026-05-04 23:03 29.14272 -81.15194 1447 ft 142 kts 65°
2026-05-04 23:03 29.14666 -81.14215 1280 ft 132 kts 64°
2026-05-04 23:03 29.15065 -81.13222 1101 ft 140 kts 65°
2026-05-04 23:03 29.15470 -81.12211 903 ft 139 kts 63°
2026-05-04 23:04 29.15880 -81.11197 752 ft 143 kts 66°
2026-05-04 23:04 29.16295 -81.10171 544 ft 141 kts 68°
2026-05-04 23:04 29.16706 -81.09140 368 ft 143 kts 68°
2026-05-04 23:04 29.17123 -81.08107 170 ft 143 kts 67°
2026-05-04 23:05 29.17529 -81.07098 43 ft 133 kts 65°
2026-05-04 23:05 29.17836 -81.06349 40 ft 74 kts 65°
2026-05-04 23:05 29.17988 -81.05967 40 ft 45 kts 65°
2026-05-04 23:05 29.18099 -81.05818 42 ft 21 kts 34°
2026-05-04 23:06 29.18175 -81.05786 41 ft 6 kts 342°
2026-05-04 23:06 29.18179 -81.05787 41 ft 0 kts 341°
2026-05-04 23:06 29.18180 -81.05787 41 ft 0 kts 340°
2026-05-04 23:07 29.18194 -81.05804 41 ft 6 kts 298°
2026-05-04 23:07 29.18178 -81.05875 42 ft 13 kts 245°
2026-05-04 23:07 29.18129 -81.05996 40 ft 20 kts 245°
2026-05-04 23:07 29.18087 -81.06107 42 ft 11 kts 257°
2026-05-04 23:08 29.18113 -81.06161 42 ft 8 kts 329°
2026-05-04 23:08 29.18163 -81.06187 42 ft 8 kts 335°
2026-05-04 23:08 29.18212 -81.06207 42 ft 7 kts 356°
2026-05-04 23:08 29.18248 -81.06170 39 ft 8 kts 78°
2026-05-04 23:09 29.18238 -81.06098 42 ft 10 kts 102°
2026-05-04 23:09 29.18241 -81.06030 42 ft 8 kts 52°
2026-05-04 23:09 29.18285 -81.06034 42 ft 7 kts 331°
2026-05-04 23:09 29.18311 -81.06051 42 ft 3 kts 330°
2026-05-04 23:10 29.18315 -81.06054 42 ft 0 kts 330°